Find Starlink 11536

NORAD ID: 62563 Int'l Des: 2025-006 Owner: SPXS Country: US Constellation: starlink operational
LEOCIRCULAR

Live-Position

3D-Globus wird geladen...

Über Starlink 11536

Beschreibung wird geladen...

Nächste Überflüge

Passes for default location (London). Set your location on the main map for personalized predictions.

Höhenverlauf

Loading altitude history...

Zweizeiliger Elementsatz

1 62563U 25006K 26124.57747429 .00184187 00000-0 14060-2 0 9997
2 62563 43.0006 162.8795 0001470 250.8074 109.2635 15.70862033 75398
Epoch: 4. Mai 2026 • Age: 4 hours

Aktueller Status

Höhe 361.7 km
Geschwindigkeit 7.69 km/s
Subsatellitenpunkt -25.40°S, 117.9°W
Startdatum 10. Jan. 2025
Alter 1.3 years
Typ internet

Technische Details

Klassifizierung Payload
Masse 960.00 kg
Trockenmasse 910.00 kg
Gesamtmasse 960.00 kg
Länge 0.30 m
Durchmesser 4.10 m
Spannweite 29.00 m
Form Box + pan
Hersteller SPXS
Bus-Typ Starlink V2MD
Phasenstatus In Orbit
Besitzer/Staat SPXS/US

Most Searched